TimeEDT,TemperatureF,Dew PointF,Humidity,Sea Level PressureIn,VisibilityMPH,Wind Direction,Wind SpeedMPH,Gust SpeedMPH,PrecipitationIn,Events,Conditions,WindDirDegrees,DateUTC
12:15 AM,59.0,44.6,59,30.21,10.0,WSW,5.8,-,N/A,,Clear,240,2013-05-28 04:15:00
12:35 AM,57.2,44.6,63,30.21,10.0,SW,5.8,-,N/A,,Clear,230,2013-05-28 04:35:00
12:55 AM,57.2,44.6,63,30.21,10.0,WSW,6.9,-,N/A,,Clear,240,2013-05-28 04:55:00
1:15 AM,57.2,44.6,63,30.22,10.0,WSW,5.8,-,N/A,,Clear,240,2013-05-28 05:15:00
1:35 AM,57.2,44.6,63,30.22,10.0,WSW,5.8,-,N/A,,Clear,240,2013-05-28 05:35:00
1:55 AM,57.2,44.6,63,30.22,10.0,WSW,3.5,-,N/A,,Clear,250,2013-05-28 05:55:00
2:15 AM,57.2,44.6,63,30.22,10.0,WSW,4.6,-,N/A,,Clear,250,2013-05-28 06:15:00
2:35 AM,57.2,44.6,63,30.21,10.0,WSW,4.6,-,N/A,,Clear,240,2013-05-28 06:35:00
2:55 AM,55.4,46.4,72,30.21,10.0,WSW,4.6,-,N/A,,Clear,250,2013-05-28 06:55:00
3:15 AM,55.4,46.4,72,30.21,10.0,WSW,4.6,-,N/A,,Clear,250,2013-05-28 07:15:00
3:35 AM,55.4,46.4,72,30.21,10.0,West,4.6,-,N/A,,Clear,260,2013-05-28 07:35:00
3:55 AM,55.4,46.4,72,30.20,10.0,Calm,Calm,-,N/A,,Clear,0,2013-05-28 07:55:00
4:15 AM,53.6,46.4,77,30.21,10.0,WSW,5.8,-,N/A,,Clear,240,2013-05-28 08:15:00
4:35 AM,55.4,46.4,72,30.20,10.0,WSW,6.9,-,N/A,,Clear,240,2013-05-28 08:35:00
4:55 AM,55.4,46.4,72,30.20,10.0,Calm,Calm,-,N/A,,Clear,0,2013-05-28 08:55:00
5:15 AM,53.6,46.4,77,30.20,10.0,Calm,Calm,-,N/A,,Clear,0,2013-05-28 09:15:00
5:35 AM,53.6,46.4,77,30.20,10.0,Calm,Calm,-,N/A,,Clear,0,2013-05-28 09:35:00
5:55 AM,53.6,46.4,77,30.20,10.0,Calm,Calm,-,N/A,,Clear,0,2013-05-28 09:55:00
6:15 AM,55.4,48.2,77,30.21,10.0,WSW,3.5,-,N/A,,Clear,250,2013-05-28 10:15:00
6:35 AM,55.4,46.4,72,30.22,10.0,WSW,4.6,-,N/A,,Clear,240,2013-05-28 10:35:00
6:55 AM,55.4,46.4,72,30.22,10.0,Calm,Calm,-,N/A,,Clear,0,2013-05-28 10:55:00
7:15 AM,57.2,48.2,72,30.22,10.0,Calm,Calm,-,N/A,,Clear,0,2013-05-28 11:15:00
7:35 AM,60.8,48.2,63,30.22,10.0,West,3.5,-,N/A,,Clear,280,2013-05-28 11:35:00
7:55 AM,62.6,50.0,63,30.22,10.0,WSW,4.6,-,N/A,,Clear,240,2013-05-28 11:55:00
8:15 AM,62.6,48.2,59,30.22,10.0,Calm,Calm,-,N/A,,Clear,0,2013-05-28 12:15:00
8:35 AM,64.4,48.2,56,30.22,10.0,SSW,3.5,-,N/A,,Clear,200,2013-05-28 12:35:00
8:55 AM,66.2,48.2,52,30.23,10.0,SW,4.6,-,N/A,,Mostly Cloudy,230,2013-05-28 12:55:00
9:15 AM,66.2,48.2,52,30.23,10.0,SSW,3.5,-,N/A,,Overcast,210,2013-05-28 13:15:00
9:35 AM,66.2,48.2,52,30.23,10.0,South,3.5,-,N/A,,Overcast,180,2013-05-28 13:35:00
9:55 AM,66.2,48.2,52,30.23,10.0,South,4.6,-,N/A,,Overcast,170,2013-05-28 13:55:00
10:15 AM,66.2,46.4,49,30.23,10.0,South,4.6,-,N/A,,Overcast,180,2013-05-28 14:15:00
10:35 AM,66.2,44.6,46,30.24,10.0,South,4.6,-,N/A,,Overcast,190,2013-05-28 14:35:00
10:55 AM,64.4,46.4,52,30.24,10.0,South,3.5,-,N/A,,Overcast,180,2013-05-28 14:55:00
11:15 AM,64.4,51.8,64,30.24,10.0,Calm,Calm,-,N/A,,Overcast,0,2013-05-28 15:15:00
11:35 AM,62.6,53.6,72,30.24,10.0,ESE,3.5,-,N/A,,Overcast,120,2013-05-28 15:35:00
11:55 AM,62.6,53.6,72,30.24,10.0,ESE,4.6,-,0.01,,Overcast,120,2013-05-28 15:55:00
12:15 PM,60.8,53.6,77,30.23,10.0,East,4.6,-,N/A,,Overcast,90,2013-05-28 16:15:00
12:35 PM,60.8,55.4,82,30.22,10.0,East,4.6,-,N/A,,Overcast,100,2013-05-28 16:35:00
12:55 PM,60.8,55.4,82,30.22,10.0,ESE,5.8,-,0.01,,Overcast,110,2013-05-28 16:55:00
1:15 PM,60.8,57.2,88,30.21,10.0,ESE,8.1,-,0.01,,Overcast,120,2013-05-28 17:15:00
1:35 PM,59.0,57.2,94,30.20,10.0,ESE,5.8,-,0.02,,Overcast,120,2013-05-28 17:35:00
1:55 PM,59.0,57.2,94,30.20,9.0,ESE,5.8,-,0.05,,Overcast,120,2013-05-28 17:55:00
2:15 PM,60.8,57.2,88,30.19,7.0,SSE,8.1,-,0.02,,Overcast,150,2013-05-28 18:15:00
2:35 PM,60.8,59.0,94,30.18,5.0,SSE,6.9,-,0.04,,Overcast,150,2013-05-28 18:35:00
2:55 PM,60.8,59.0,94,30.17,5.0,SSE,10.4,16.1,0.06,,Mostly Cloudy,160,2013-05-28 18:55:00
3:15 PM,60.8,59.0,94,30.17,5.0,South,10.4,17.3,0.03,,Overcast,170,2013-05-28 19:15:00
3:35 PM,60.8,57.2,88,30.17,7.0,South,8.1,16.1,0.04,,Overcast,170,2013-05-28 19:35:00
3:55 PM,59.0,57.2,94,30.17,7.0,South,8.1,-,0.18,,Overcast,170,2013-05-28 19:55:00
4:15 PM,59.0,57.2,94,30.17,8.0,South,6.9,-,0.10,,Overcast,170,2013-05-28 20:15:00
4:35 PM,59.0,57.2,94,30.17,7.0,South,8.1,-,0.12,,Overcast,180,2013-05-28 20:35:00
4:55 PM,59.0,59.0,100,30.17,3.0,South,4.6,-,0.12,,Overcast,180,2013-05-28 20:55:00
5:15 PM,60.8,59.0,94,30.16,5.0,South,3.5,-,N/A,,Overcast,190,2013-05-28 21:15:00
5:35 PM,60.8,59.0,94,30.16,4.0,SSE,3.5,-,N/A,,Overcast,160,2013-05-28 21:35:00
5:55 PM,60.8,59.0,94,30.16,4.0,Calm,Calm,-,N/A,,Overcast,0,2013-05-28 21:55:00
6:15 PM,60.8,59.0,94,30.15,3.0,Calm,Calm,-,0.03,,Overcast,0,2013-05-28 22:15:00
6:35 PM,60.8,60.8,100,30.14,3.0,Calm,Calm,-,0.04,,Overcast,0,2013-05-28 22:35:00
6:55 PM,60.8,60.8,100,30.15,4.0,Calm,Calm,-,0.04,,Overcast,0,2013-05-28 22:55:00
7:15 PM,60.8,60.8,100,30.15,5.0,Calm,Calm,-,N/A,,Overcast,0,2013-05-28 23:15:00
7:35 PM,60.8,60.8,100,30.15,5.0,Calm,Calm,-,N/A,,Overcast,0,2013-05-28 23:35:00
7:55 PM,60.8,59.0,94,30.14,4.0,Calm,Calm,-,N/A,,Overcast,0,2013-05-28 23:55:00
8:15 PM,60.8,59.0,94,30.14,4.0,Calm,Calm,-,N/A,,Overcast,0,2013-05-29 00:15:00
8:35 PM,60.8,60.8,100,30.14,1.5,Calm,Calm,-,N/A,,Overcast,0,2013-05-29 00:35:00
8:55 PM,60.8,60.8,100,30.14,1.2,ENE,4.6,-,N/A,,Overcast,70,2013-05-29 00:55:00
9:15 PM,60.8,59.0,94,30.14,1.2,ESE,5.8,-,N/A,,Overcast,110,2013-05-29 01:15:00
9:35 PM,60.8,60.8,100,30.15,1.5,East,3.5,-,N/A,,Overcast,100,2013-05-29 01:35:00
9:55 PM,60.8,60.8,100,30.14,2.5,SE,5.8,-,N/A,,Overcast,140,2013-05-29 01:55:00
10:15 PM,60.8,60.8,100,30.14,5.0,Calm,Calm,-,N/A,,Overcast,0,2013-05-29 02:15:00
10:35 PM,60.8,60.8,100,30.15,2.0,Calm,Calm,-,N/A,,Overcast,0,2013-05-29 02:35:00
10:55 PM,60.8,60.8,100,30.14,2.5,Calm,Calm,-,N/A,,Overcast,0,2013-05-29 02:55:00
11:15 PM,60.8,60.8,100,30.13,3.0,SE,3.5,-,N/A,,Overcast,130,2013-05-29 03:15:00
11:35 PM,60.8,60.8,100,30.13,6.0,South,4.6,-,N/A,,Mostly Cloudy,170,2013-05-29 03:35:00
11:55 PM,60.8,60.8,100,30.14,9.0,Calm,Calm,-,N/A,,Mostly Cloudy,0,2013-05-29 03:55:00